Regional Weather Roundup
Issued by NWS State College, PA

Home | Current Version | Previous Version | Graphics & Text | Print | Product List | Glossary Off
Versions: 1 2 3 4 5 6 7 8 9 10 11 12 13 14 15 16 17 18 19 20 21 22 23 24 25 26 27 28 29 30 31 32 33 34 35 36 37 38 39 40 41 42 43 44 45 46 47 48 49 50

000
ASUS41 KCTP 280610
RWRCTP

REGIONAL WEATHER ROUNDUP
NATIONAL WEATHER SERVICE STATE COLLEGE PA
200 AM EDT THU APR 28 2016

Note: "fair" indicates few or no clouds below 12,000 feet with no
significant weather and/or obstructions to visibility.

* = STATION THAT DOES NOT REPORT PRECIPITATION /E.G. RAIN...SNOW...ETC/
    THUNDER OR FOG.

PAZ002>004-007>009-013>016-020>023-029>032-280700-
WESTERN PENNSYLVANIA

CITY           SKY/WX    TMP DP  RH WIND       PRES   REMARKS
ERIE           CLOUDY    44  33  65 NE9       29.95F
MEADVILLE      CLOUDY    43  24  47 NE9       29.91F
FRANKLIN*      CLOUDY    45  19  36 NE9       29.93F
NEW CASTLE     FAIR      48  24  39 NE5       29.92S
BEAVER COUNTY  NOT AVBL
BUTLER*        CLOUDY    48  27  43 NE7       29.93S
PITTSBURGH INT CLOUDY    54  31  41 NE5       29.89F
PITTSBURGH     CLOUDY    54  34  46 N5        29.88F
INDIANA*       CLEAR     50  46  87 CALM      29.94R
LATROBE        CLOUDY    50  50 100 CALM      29.90F
WASHINGTON CO* CLOUDY    54  43  66 NE6       29.89F
$$

PAZ004>006-010>012-017>019-024>028-033>037-041-042-045-046-049>053-280700-
CENTRAL PENNSYLVANIA

CITY           SKY/WX    TMP DP  RH WIND       PRES   REMARKS
BRADFORD       MOCLDY    38  23  55 NE5       29.93F
DUBOIS         PTCLDY    46  24  42 NE8       29.91F
CLEARFIELD     PTCLDY    49  28  44 N5        29.93R
JOHNSTOWN      CLOUDY    50  44  80 CALM      29.89F
ALTOONA        CLOUDY    48  44  86 CALM      29.90R FOG
STATE COLLEGE  PTCLDY    49  38  67 NE6       29.93S
WILLIAMSPORT   CLOUDY    49  38  65 CALM      29.95S
SELINSGROVE    CLOUDY    44  42  93 N3        29.95S FOG
FT INDIANTOWN  MOCLDY    50  48  91 N2        29.93F
CAPITAL CITY   CLOUDY    53  47  79 CALM      29.93F
HARRISBURG     CLOUDY    53  47  79 CALM      29.93F
YORK           CLOUDY    52  50  93 CALM      29.92F FOG
$$

PAZ038>040-043-044-047-048-054-055-060>062-067>071-280700-
EASTERN PENNSYLVANIA

CITY           SKY/WX    TMP DP  RH WIND       PRES   REMARKS
SCRANTON       PTCLDY    46  27  47 CALM      29.96R
MOUNT POCONO   PTCLDY    41  25  53 N8        29.92S
ALLENTOWN      CLOUDY    45  42  89 CALM      29.94S FOG
QUAKERTOWN*    PTCLDY    41  41 100 CALM      29.93F
READING        PTCLDY    50  45  83 CALM      29.93F
LANCASTER      CLOUDY    52  48  86 N3        29.93F FOG
COATESVILLE    MOCLDY    50  50 100 NW3       29.94F FOG
POTTSTOWN      PTCLDY    44  44 100 N3        29.94F FOG
BLUE BELL        N/A     43  43 100 CALM      29.92F
DOYLESTOWN     PTCLDY    46  44  93 CALM      29.92S
WILLOW GROVE   NOT AVBL
NORTH PHILA    CLOUDY    47  44  90 CALM      29.94F
PHILADELPHIA   MOCLDY    51  44  77 CALM      29.94F
$$




USA.gov is the U.S. government's official web portal to all federal, state and local government web resources and services.